Regional Weather Roundup
Issued by NWS

Home | Current Version | Previous Version | Graphics & Text | Print | Product List | Glossary On
Versions: 1 2 3 4 5 6 7 8 9 10 11 12 13 14 15 16 17 18 19 20 21 22 23 24 25 26 27 28 29 30 31 32 33 34 35 36 37 38 39 40 41 42 43 44 45 46 47 48 49 50
000
ASUS43 KMPX 272301
RWRMN
WEATHER ROUNDUP FOR MINNESOTA
NATIONAL WEATHER SERVICE TWIN CITIES/CHANHASSEN MN
600 PM CDT MON JUL 27 2015


NOTE: "FAIR" INDICATES FEW OR NO CLOUDS BELOW 12,000 FEET WITH NO
SIGNIFICANT WEATHER AND/OR OBSTRUCTIONS TO VISIBILITY. N/A MEANS
CURRENT SKY AND/OR WEATHER CONDITIONS ARE NOT AVAILABLE.

MNZ060>063-068>070-280000-
   Twin Cities Metro

CITY           SKY/WX    TMP DP  RH WIND       PRES   REMARKS
TWIN CITIES    PTSUNNY   84  71  65 SE12      29.90S
ST PAUL        PTSUNNY   84  72  67 SE13      29.91S
CRYSTAL        PTSUNNY   86  71  60 SE9       29.89S HX  91
BLAINE         MOSUNNY   86  72  62 SE12G17   29.91S HX  92
LAKEVILLE      MOSUNNY   82  72  69 SE8       29.91S
EDEN PRAIRIE   PTSUNNY   84  72  67 SE15      29.89S
SOUTH ST PAUL  PTSUNNY   83  70  63 SE8       29.91S
LAKE ELMO      PTSUNNY   82  72  69 SE13      29.93S
$$
MNZ001>005-007-008-013>017-022>024-027-028-280000-
   Northwest Minnesota

CITY           SKY/WX    TMP DP  RH WIND       PRES   REMARKS
BEMIDJI        PTSUNNY   83  70  66 SE8       29.87F
HALLOCK        SUNNY     84  72  65 S15       29.77F
ROSEAU         SUNNY     86  73  66 S12       29.83F HX  93
WARROAD        MOSUNNY   88  73  62 S9        29.84F HX  96
THIEF RVR FALL CLOUDY    81  72  74 SE12      29.81F
CROOKSTON      PTSUNNY   84  72  65 S18       29.80F
FOSSTON        CLOUDY    82  70  65 S7        29.85F
DETROIT LAKES  PTSUNNY   86  68  54 SE13      29.85F
MOORHEAD       MOSUNNY   88  72  58 SE14G21   29.78F HX  94
PARK RAPIDS    MOSUNNY   87  67  51 S20       29.86F HX  90
MAHNOMEN       FAIR      83  71  67 SE7       29.84F
$$
MNZ006-009>011-018-025>026-280000-
   North Central Minnesota

CITY           SKY/WX    TMP DP  RH WIND       PRES   REMARKS
BAUDETTE       MOSUNNY   87  66  49 S10       29.86F
FLAG ISLAND    SUNNY     84  70  61 S8        29.84F
INTL FALLS     PTSUNNY   83  65  54 VRB3      29.88F
WASKISH        MOSUNNY   84  70  61 SE8       29.87S
BIG FORK       MOSUNNY   86  63  45 S9        29.91S
LONGVILLE      SUNNY     84  70  61 S7        29.89F
GRAND RAPIDS   SUNNY     84  64  51 S10       29.91F
CRANE LAKE     SUNNY     88  52  29 S6        29.92F
ORR            SUNNY     88  54  31 S6        29.89S
COOK           SUNNY     84  61  45 S7        29.92S
WALKER         FAIR      81  70  70 SE6       29.87F
$$
MNZ012-019>021-037-280000-
   Northeast Minnesota

CITY           SKY/WX    TMP DP  RH WIND       PRES   REMARKS
DULUTH         MOSUNNY   82  63  52 SE8       29.95S
ELY            SUNNY     86  54  32 S9        29.94S
HIBBING        MOSUNNY   85  64  49 SE13      29.92F
EVELETH        MOSUNNY   86  61  42 SE8       29.94F
DULUTH HARBOR  SUNNY     75  70  83 NE10      29.92S
TWO HARBORS    SUNNY     86  68  54 E6        29.92F
SILVER BAY     SUNNY     84  63  48 E6        29.93F
GRAND MARAIS     N/A     69  63  81 CALM      29.94F
G MARAIS ARPRT SUNNY     79  54  41 S5        30.02S
$$
MNZ029>031-032-039>041-046>048-054>057-064-280000-
   West Central Minnesota

CITY           SKY/WX    TMP DP  RH WIND       PRES   REMARKS
FERGUS FALLS   SUNNY     84  70  61 S14G23    29.80F
WHEATON        SUNNY     82  73  74 SE20G25   29.80F
MORRIS         MOSUNNY   84  73  70 SE13      29.82F HX  91
ALEXANDRIA     MOSUNNY   85  71  63 S14G23    29.88F HX  90
ELBOW LAKE     FAIR      84  73  68 SE15G23   29.83F HX  90
WADENA         MOSUNNY   86  68  54 S15G21    29.86F
GLENWOOD       SUNNY     82  72  69 SE12      29.88S
APPLETON       SUNNY     88  72  58 SE12      29.82S HX  94
BENSON         MOSUNNY   84  72  65 S12G17    29.84S
ORTONVILLE     MOSUNNY   84  73  70 SE15      29.80F HX  91
MADISON        SUNNY     84  73  70 SE14      29.81F HX  91
WILLMAR        FAIR      84  73  70 SE13G20   29.87S HX  91
$$
MNZ033>034-036-042>043-049>051-058-059-280000-
   Central Minnesota

CITY           SKY/WX    TMP DP  RH WIND       PRES   REMARKS
ST CLOUD       MOSUNNY   85  72  65 S15G22    29.88S HX  91
SAUK CENTRE    MOCLDY   N/A N/A N/A SE10G16   29.88S
PAYNESVILLE    PTSUNNY   80  71  74 E12       29.89S
AITKIN         MOSUNNY   84  70  61 SE10G17   29.89S
PINE RIVER     PTSUNNY   82  72  69 SE13      29.91F
BRAINERD       MOSUNNY   82  70  66 SE12      29.89F
STAPLES        SUNNY     84  68  58 SE10      29.87F
LONG PRAIRIE   FAIR      81  70  69 SE12      29.89S
LITTLE FALLS   PTSUNNY   86  68  54 SE10      29.88F
LITCHFIELD     SUNNY     84  75  74 SE8G17    29.88S HX  92
BUFFALO        MOSUNNY   83  70  64 SE7       29.90S
MAPLE LAKE     SUNNY     84  75  74 SE7       29.90S HX  92
$$
MNZ037-044-045-052-053-280000-
   East Central Minnesota

CITY           SKY/WX    TMP DP  RH WIND       PRES   REMARKS
PRINCETON      MOSUNNY   86  72  62 E10       29.90R HX  92
MORA           MOSUNNY   81  68  65 SE8       29.92S
CAMBRIDGE        N/A     86  70  58 SE8       29.89S HX  90
RUSH CITY      MOSUNNY   82  70  67 S7        29.92R
MOOSE LAKE     PTSUNNY   82  64  54 SE5       29.90F
HINCKLEY       FAIR      82  70  65 SE10      29.92S
CLOQUET        PTSUNNY   82  63  51 SE7       29.94S
MCGREGOR       MOSUNNY   84  68  58 SE10      29.92S
$$
MNZ071>073-080-081-089-090-097-098-280000-
   Southwest Minnesota

CITY           SKY/WX    TMP DP  RH WIND       PRES   REMARKS
MONTEVIDEO     MOSUNNY   88  73  62 S13       29.85S HX  96
GRANITE FALLS  SUNNY     85  72  66 SE12      29.84F HX  90
CANBY          SUNNY     86  71  60 SE10      29.82F HX  91
MARSHALL       SUNNY     84  66  54 S16       29.84F
REDWOOD FALLS  MOSUNNY   83  73  72 SE10      29.84F
OLIVIA         MOSUNNY   81  68  65 SE13      29.86S
PIPESTONE      SUNNY     82  72  69 S9        29.84F
WINDOM         SUNNY     84  70  61 SE10      29.87S
WORTHINGTON    MOSUNNY   82  70  65 S10       29.86F
JACKSON        SUNNY     84  70  61 SE10      29.88S
TRACY          SUNNY     84  72  65 S10       29.85S
SLAYTON        SUNNY     82  72  70 SE3       29.87S
$$
MNZ065>067-074>077-082>085-091>093-280000-
   South Central Minnesota

CITY           SKY/WX    TMP DP  RH WIND       PRES   REMARKS
MANKATO        MOSUNNY   82  72  69 SE15G22   29.88F
NEW ULM        MOSUNNY   82  73  74 SE13      29.86S
ST JAMES       SUNNY     82  73  74 SE9G17    29.87S
FAIRMONT       SUNNY     82  66  57 SE17      29.87S
GLENCOE        MOSUNNY   85  75  71 SE9       29.88F HX  94
FARIBAULT      MOSUNNY   82  72  69 SE13G18   29.92S
OWATONNA       MOSUNNY   82  72  69 SE14      29.91F
WASECA         MOSUNNY   81  72  74 SE16      29.91F
ALBERT LEA     PTSUNNY   81  73  78 SE17G24   29.90F
$$
MNZ078>079-086>088-094>096-280000-
   Southeast Minnesota

CITY           SKY/WX    TMP DP  RH WIND       PRES   REMARKS
ROCHESTER      PTSUNNY   80  72  76 S12       29.95F
RED WING       MOSUNNY   84  70  61 SE10G17   29.91S
STANTON        MOSUNNY   84  71  63 SE15      29.90S
DODGE CENTER   MOSUNNY   81  72  74 S10       29.95S
WINONA         CLOUDY    86  72  62 S3        29.93F HX  92
AUSTIN         PTSUNNY   81  72  74 S7        29.93F
PRESTON        CLOUDY    82  71  68 S8        29.96F
$$
ABBREVIATIONS USED IN REMARKS
   TC - TEMPERATURES IN CELSIUS
  WCI - WIND CHILL INDEX
   HX - HEAT INDEX
  VSB - VISIBILITY
$$


USA.gov is the U.S. government's official web portal to all federal, state and local government web resources and services.